[[{"header":{"parameterUnit":"m.s-1","parameterCategory":1,"la1":30.2991,"la2":30.254,"lo1":-89.0895,"lo2":-89.0444,"dy":0.0017,"dx":0.0017,"nx":28,"ny":28,"refTime":"2024-09-03T09:00:00:Z","depth":0,"parameterNumber":2,"parameterNumberName":"U-component_of_WINDS"},"data":[0,0,0,0,0,0,0,0,0,0,0,0,0,0,0,0,0,0,0,0,0,0,0,0,0,0,0,0,0,0,0,0,0,0,0,0,0,0,0,0,0,0,0,0,0,0,0,0,0,0,0,0,0,0,0,0,0,0,-7.6881,-7.6879,0,-7.6761,-7.676,-7.6759,-7.6481,-7.6476,-7.647,-7.6464,-7.6349,-7.6352,-7.6354,0,0,0,0,0,0,0,0,0,0,0,0,0,-7.6875,-7.6876,-7.6881,-7.6879,-7.6878,-7.6762,-7.676,-7.6758,-7.6482,-7.6475,-7.6468,-7.6462,-7.6349,-7.6351,-7.6354,0,0,0,0,0,0,0,0,0,0,0,0,0,-7.6829,-7.6877,-7.6881,-7.6726,-7.6711,-7.6762,-7.676,-7.6758,-7.6484,-7.6475,-7.6467,-7.6459,-7.6348,-7.6351,-7.6354,-7.6549,0,0,-7.6365,-7.6367,0,0,0,0,0,0,0,0,-7.6832,-7.683,-7.675,-7.6737,-7.672,-7.6627,-7.6715,-7.6688,-7.6486,-7.657,-7.6464,-7.6454,-7.6449,-7.6444,-7.6441,-7.6543,-7.6538,-7.6365,-7.6367,-7.6369,-7.637,0,0,0,0,0,0,0,-7.6835,-7.6833,-7.6834,-7.6749,-7.6731,-7.6664,-7.6648,-7.6709,-7.656,-7.6562,-7.6542,-7.6531,-7.6439,-7.6438,-7.6436,-7.6537,-7.6365,-7.6368,-7.637,-7.6372,-7.6791,-7.6799,0,0,0,0,0,0,-7.686,-7.6838,-7.6837,-7.683,-7.6756,-7.6671,-7.6653,-7.6666,-7.6558,-7.6534,-7.6539,-7.6519,-7.6436,-7.6432,-7.6431,-7.6649,-7.6369,-7.6372,-7.6374,-7.6782,-7.6793,-7.6802,0,0,0,0,0,0,-7.6861,-7.6863,-7.6842,-7.6828,-7.682,-7.668,-7.6697,-7.6668,-7.6666,-7.654,-7.6513,-7.6564,-7.6429,-7.6426,-7.652,-7.6641,-7.6374,-7.6377,-7.6771,-7.6785,-7.6798,-7.709,0,0,0,0,0,0,-7.6862,-7.6865,-7.6936,-7.6832,-7.6822,-7.6934,-7.6704,-7.6672,-7.6672,-7.6645,-7.6557,-7.6535,-7.6422,-7.6517,-7.6524,-7.6641,-7.638,-7.676,-7.6777,-7.6793,-7.7069,-7.7112,-7.7148,0,0,0,0,0,-7.6863,-7.7025,-7.6941,-7.6943,-7.6908,-7.6941,-7.6935,-7.6801,-7.6683,-7.6754,-7.6673,-7.6537,-7.6628,-7.6529,-7.6535,-7.6655,-7.6751,-7.6772,-7.6792,-7.7051,-7.7103,-7.7147,0,0,0,0,0,0,-7.7151,-7.7009,-7.6914,-7.7047,-7.7008,-7.6894,-7.6979,-7.6861,-7.6856,-7.6832,-7.6667,-7.665,-7.6767,-7.672,-7.6613,-7.6836,-7.6667,-7.669,-7.6862,-7.6911,-7.695,-7.6958,-7.6382,0,0,0,0,0,-7.7229,-7.7266,-7.714,-7.727,-7.7255,-7.7122,-7.7131,-7.703,-7.6984,-7.6967,-7.6892,-7.6854,-7.6873,-7.689,-7.69,-7.7061,-7.7037,-7.7146,-7.7186,-7.722,-7.7241,-7.732,-7.7367,-7.6869,-7.6869,-7.6869,0,0,-7.7393,-7.7319,-7.7353,-7.7326,-7.7283,-7.7326,-7.7109,-7.7164,-7.7194,-7.6975,-7.7058,-7.7004,-7.695,-7.7078,-7.7131,-7.7043,-7.7373,-7.7246,-7.7273,-7.7276,-7.7346,-7.7394,-7.7436,-7.6883,-7.6881,-7.6879,0,0,-7.7711,-7.766,-7.7761,-7.7722,-7.766,-7.7569,-7.7595,-7.7498,-7.7452,-7.7533,-7.7369,-7.7403,-7.744,-7.7408,-7.7397,-7.7703,-7.7577,-7.7711,-7.7919,-7.7999,-7.8038,-7.8072,-7.818,-7.8221,-7.7733,-7.7734,-7.7734,0,-7.7923,-7.7978,-7.7829,-7.7893,-7.7886,-7.7687,-7.7788,-7.7759,-7.7705,-7.7705,-7.7607,-7.7647,-7.7598,-7.7715,-7.7789,-7.7787,-7.781,-7.772,-7.8044,-7.8077,-7.8106,-7.8207,-7.8248,-7.775,-7.7748,-7.7747,-7.7745,0,-7.824,-7.8282,-7.8371,-7.832,-7.8323,-7.8407,-7.8271,-7.8292,-7.8192,-7.8113,-7.8197,-7.813,-7.8123,-7.8144,-7.8048,-7.8247,-7.8194,-7.8074,-7.79,-7.8173,-7.8264,-7.8302,-7.7774,-7.7768,-7.7763,-7.7759,0,0,-7.8737,-7.8601,-7.8636,-7.861,-7.8526,-7.8556,-7.863,-7.862,-7.8641,-7.8611,-7.8669,-7.8705,-7.8591,-7.8578,-7.8477,-7.8547,-7.8792,-7.8416,-7.8412,-7.8487,-7.9006,-7.9097,-7.9144,-7.8708,-7.8715,-7.872,-7.901,0,-7.9035,-7.9151,-7.9018,-7.9163,-7.9199,-7.901,-7.9074,-7.9031,-7.896,-7.8981,-7.8902,-7.8928,-7.8777,-7.8768,-7.8829,-7.8749,-7.8893,-7.8727,-7.8761,-7.8764,-7.8779,-7.9192,-7.9288,-7.9564,-7.9045,-7.9051,-7.9055,0,-7.9397,-7.938,-7.9529,-7.9433,-7.9443,-7.9503,-7.9482,-7.9505,-7.9452,-7.9395,-7.9381,-7.9257,-7.9324,-7.9157,-7.9247,-7.9136,-7.9143,-7.9106,-7.9113,-7.911,-7.8926,-7.9199,-7.9649,-7.9691,-7.9111,-7.9106,-7.9102,0,-7.9743,-7.9758,-7.9847,-7.9831,-7.9722,-7.9769,-7.9726,-7.9664,-7.9666,-7.965,-7.9649,-7.9643,-7.9639,-7.9637,-7.9515,-7.9404,-7.962,-7.9443,-7.9575,-7.9578,-7.9628,-7.9626,-8.0085,-7.9636,-7.9635,-7.9634,-7.9634,0,-8.0088,-8.0186,-8.0,-8.0056,-8.016,-8.0007,-8.0115,-8.0053,-7.9999,-8.004,-7.9878,-7.992,-7.9757,-7.9783,-7.9688,-7.9777,-7.9777,-7.9733,-7.9706,-7.9746,-7.9752,-7.9748,-7.9725,-7.9645,-7.9643,-7.9641,-7.9639,0,-8.0492,-8.0371,-8.0456,-8.0345,-8.032,-8.0402,-8.0307,-8.0354,-8.0271,-8.0325,-8.0329,-8.02,-8.0221,-8.0099,-8.01,-8.0036,-8.0171,-8.0112,-8.0188,-8.0169,-8.0308,-8.0296,-8.0778,-8.0833,-8.0352,-8.0356,-8.036,0,-8.0719,-8.0789,-8.0685,-8.0699,-8.0664,-8.069,-8.069,-8.0543,-8.0551,-8.0494,-8.0549,-8.0556,-8.0553,-8.0597,-8.0504,-8.0503,-8.0442,-8.0611,-8.0441,-8.0479,-8.0443,-8.044,-8.0446,-8.0647,-8.0653,-8.0658,-8.0662,0,-8.1136,-8.1072,-8.1077,-8.1062,-8.1067,-8.1049,-8.102,-8.1041,-8.0882,-8.0899,-8.0916,-8.0915,-8.0913,-8.0922,-8.0903,-8.086,-8.0736,-8.0716,-8.0746,-8.0788,-8.0828,-8.0806,-8.0283,-8.0706,-8.0701,-8.0698,-8.0696,-8.0694,-8.1456,-8.1509,-8.1443,-8.1454,-8.1416,-8.1393,-8.1431,-8.1351,-8.1363,-8.1348,-8.1261,-8.1296,-8.124,-8.1199,-8.1169,-8.1194,-8.1114,-8.1158,-8.1169,-8.1182,-8.1206,-8.0825,-8.1191,-8.1189,-8.1188,-8.1187,-8.1186,0,-8.1863,-8.181,-8.1822,-8.1785,-8.1794,-8.1673,-8.1635,-8.1651,-8.1682,-8.164,-8.164,-8.166,-8.1668,-8.1576,-8.1572,-8.161,-8.1553,-8.1614,-8.1609,-8.1601,-8.1279,-8.1252,-8.166,-8.166,-8.166,-8.166,-8.166,-8.166,-8.2075,-8.2157,-8.2086,-8.2147,-8.2094,-8.2124,-8.2112,-8.209,-8.2054,-8.2084,-8.2088,-8.2027,-8.1964,-8.1954,-8.1957,-8.1929,-8.1935,-8.2016,-8.1969,-8.167,-8.1624,-8.158,-8.1554,-8.2019,-8.2019,-8.2288,-8.2291,-8.2293]},{"header":{"parameterUnit":"m.s-1","parameterCategory":1,"la1":30.2991,"la2":30.254,"lo1":-89.0895,"lo2":-89.0444,"dy":0.0017,"dx":0.0017,"nx":28,"ny":28,"refTime":"2024-09-03T09:00:00:Z","depth":0,"parameterNumber":3,"parameterNumberName":"V-component_of_WINDS"},"data":[0,0,0,0,0,0,0,0,0,0,0,0,0,0,0,0,0,0,0,0,0,0,0,0,0,0,0,0,0,0,0,0,0,0,0,0,0,0,0,0,0,0,0,0,0,0,0,0,0,0,0,0,0,0,0,0,0,0,-2.4608,-2.4608,0,-2.4589,-2.4589,-2.4589,-2.4557,-2.4556,-2.4556,-2.4555,-2.4536,-2.4536,-2.4537,0,0,0,0,0,0,0,0,0,0,0,0,0,-2.4617,-2.4617,-2.4608,-2.4608,-2.4607,-2.4589,-2.4589,-2.4588,-2.4557,-2.4556,-2.4556,-2.4555,-2.4536,-2.4536,-2.4537,0,0,0,0,0,0,0,0,0,0,0,0,0,-2.4607,-2.4617,-2.4608,-2.4589,-2.4588,-2.4589,-2.4589,-2.4588,-2.4557,-2.4556,-2.4555,-2.4555,-2.4536,-2.4536,-2.4537,-2.4555,0,0,-2.4537,-2.4537,0,0,0,0,0,0,0,0,-2.4608,-2.4607,-2.4592,-2.4591,-2.4589,-2.4574,-2.4585,-2.4577,-2.4557,-2.4569,-2.4555,-2.4554,-2.455,-2.4549,-2.4547,-2.4554,-2.4553,-2.4537,-2.4537,-2.4537,-2.4537,0,0,0,0,0,0,0,-2.4608,-2.4607,-2.46,-2.4592,-2.459,-2.4582,-2.458,-2.4583,-2.4564,-2.4568,-2.4565,-2.4564,-2.4549,-2.4547,-2.4546,-2.4553,-2.4537,-2.4537,-2.4537,-2.4537,-2.4572,-2.4573,0,0,0,0,0,0,-2.4612,-2.4608,-2.4601,-2.46,-2.4596,-2.4583,-2.458,-2.458,-2.4564,-2.4561,-2.4564,-2.4562,-2.4547,-2.4546,-2.4546,-2.4565,-2.4537,-2.4537,-2.4537,-2.4571,-2.4572,-2.4573,0,0,0,0,0,0,-2.4612,-2.4611,-2.4602,-2.4603,-2.4602,-2.4584,-2.4584,-2.458,-2.4578,-2.4562,-2.4558,-2.4566,-2.4547,-2.4546,-2.4552,-2.4564,-2.4537,-2.4537,-2.457,-2.4572,-2.4573,-2.4604,0,0,0,0,0,0,-2.4613,-2.4612,-2.4618,-2.4604,-2.4602,-2.4609,-2.4584,-2.458,-2.4579,-2.4576,-2.4563,-2.456,-2.4546,-2.4552,-2.4552,-2.4563,-2.4537,-2.4569,-2.4571,-2.4572,-2.4602,-2.4606,-2.461,0,0,0,0,0,-2.4613,-2.4628,-2.4619,-2.4618,-2.4609,-2.4609,-2.4608,-2.4592,-2.458,-2.4586,-2.4575,-2.456,-2.4563,-2.4553,-2.4553,-2.4564,-2.4568,-2.457,-2.4572,-2.46,-2.4605,-2.461,0,0,0,0,0,0,-2.4645,-2.4626,-2.4615,-2.4626,-2.462,-2.4604,-2.4611,-2.4598,-2.4595,-2.4592,-2.4573,-2.457,-2.4579,-2.4573,-2.4562,-2.4581,-2.4563,-2.4565,-2.4584,-2.4589,-2.4593,-2.4594,-2.4537,0,0,0,0,0,-2.4653,-2.4654,-2.4638,-2.4649,-2.4646,-2.463,-2.4629,-2.4617,-2.461,-2.4607,-2.4596,-2.459,-2.4589,-2.4589,-2.4588,-2.4601,-2.4597,-2.4609,-2.4613,-2.4616,-2.4618,-2.4624,-2.4628,-2.458,-2.458,-2.458,0,0,-2.467,-2.466,-2.4662,-2.4655,-2.4649,-2.465,-2.4627,-2.4631,-2.4632,-2.4607,-2.4612,-2.4605,-2.4596,-2.4606,-2.461,-2.4601,-2.463,-2.4619,-2.4622,-2.4621,-2.4626,-2.4631,-2.4635,-2.4581,-2.4581,-2.4581,0,0,-2.4701,-2.4694,-2.4702,-2.4696,-2.4687,-2.4675,-2.4678,-2.4664,-2.4658,-2.4663,-2.4645,-2.4646,-2.4645,-2.4639,-2.4637,-2.4666,-2.4652,-2.4666,-2.4687,-2.4693,-2.4697,-2.47,-2.471,-2.4713,-2.4668,-2.4668,-2.4669,0,-2.4723,-2.4725,-2.4708,-2.4712,-2.4709,-2.4688,-2.4695,-2.469,-2.4681,-2.468,-2.467,-2.4668,-2.4661,-2.4669,-2.4676,-2.4675,-2.4676,-2.4667,-2.4698,-2.4701,-2.4704,-2.4712,-2.4716,-2.467,-2.467,-2.467,-2.467,0,-2.4752,-2.4754,-2.4762,-2.4753,-2.4751,-2.4757,-2.4741,-2.4742,-2.473,-2.472,-2.4725,-2.4716,-2.4712,-2.4713,-2.4702,-2.4719,-2.4714,-2.4701,-2.4683,-2.471,-2.4718,-2.4721,-2.4673,-2.4672,-2.4672,-2.4671,0,0,-2.4802,-2.4784,-2.4787,-2.4782,-2.477,-2.4771,-2.4776,-2.4772,-2.4772,-2.4767,-2.477,-2.477,-2.4758,-2.4755,-2.4743,-2.4749,-2.4772,-2.4735,-2.4735,-2.4741,-2.4789,-2.4798,-2.4802,-2.4763,-2.4763,-2.4764,-2.4789,0,-2.483,-2.4837,-2.4822,-2.4833,-2.4834,-2.4813,-2.4818,-2.4811,-2.4802,-2.4801,-2.4791,-2.4791,-2.4776,-2.4774,-2.4778,-2.4768,-2.4781,-2.4766,-2.4765,-2.4765,-2.4766,-2.4806,-2.4815,-2.484,-2.4792,-2.4793,-2.4793,0,-2.4863,-2.4859,-2.487,-2.4857,-2.4856,-2.4861,-2.4855,-2.4855,-2.4847,-2.484,-2.4837,-2.4823,-2.4827,-2.4811,-2.4815,-2.4806,-2.4805,-2.4799,-2.48,-2.4798,-2.478,-2.4804,-2.4848,-2.4851,-2.4798,-2.4798,-2.4798,0,-2.4897,-2.4894,-2.49,-2.4897,-2.4882,-2.4885,-2.4879,-2.487,-2.4869,-2.4864,-2.4863,-2.4859,-2.4857,-2.4855,-2.484,-2.483,-2.4846,-2.4829,-2.484,-2.484,-2.4843,-2.4843,-2.4886,-2.4845,-2.4845,-2.4845,-2.4845,0,-2.4929,-2.4936,-2.4914,-2.4918,-2.4925,-2.4908,-2.4916,-2.4908,-2.49,-2.4902,-2.4885,-2.4886,-2.4868,-2.4868,-2.4857,-2.4862,-2.4861,-2.4855,-2.4852,-2.4856,-2.4857,-2.4854,-2.4851,-2.4846,-2.4846,-2.4845,-2.4845,0,-2.4967,-2.4953,-2.4958,-2.4944,-2.494,-2.4946,-2.4934,-2.4936,-2.4927,-2.4929,-2.4928,-2.4913,-2.4912,-2.4897,-2.4893,-2.4886,-2.4895,-2.4889,-2.4897,-2.4895,-2.4906,-2.4905,-2.4948,-2.4952,-2.491,-2.491,-2.4911,0,-2.4987,-2.4992,-2.4978,-2.4978,-2.4973,-2.4973,-2.4971,-2.4955,-2.4953,-2.4944,-2.4948,-2.4946,-2.4942,-2.4941,-2.493,-2.4926,-2.492,-2.4935,-2.4919,-2.4923,-2.4918,-2.4918,-2.4918,-2.4938,-2.4938,-2.4939,-2.4939,0,-2.5024,-2.5017,-2.5015,-2.5011,-2.5009,-2.5005,-2.5,-2.5,-2.4982,-2.4982,-2.498,-2.4978,-2.4974,-2.4971,-2.4966,-2.496,-2.4946,-2.4945,-2.4947,-2.495,-2.4954,-2.4951,-2.4905,-2.4943,-2.4943,-2.4942,-2.4942,-2.4942,-2.5053,-2.5056,-2.5047,-2.5045,-2.504,-2.5035,-2.5037,-2.5027,-2.5026,-2.502,-2.5011,-2.5011,-2.5003,-2.4994,-2.4989,-2.4989,-2.4981,-2.4984,-2.4985,-2.4985,-2.4987,-2.4956,-2.4988,-2.4988,-2.4988,-2.4987,-2.4987,0,-2.5088,-2.5082,-2.508,-2.5073,-2.5072,-2.506,-2.5054,-2.5053,-2.5053,-2.5046,-2.5044,-2.5042,-2.5039,-2.5028,-2.5024,-2.5026,-2.5019,-2.5025,-2.5024,-2.5023,-2.4995,-2.4993,-2.503,-2.503,-2.503,-2.503,-2.503,-2.503,-2.5107,-2.5111,-2.5103,-2.5104,-2.5098,-2.5097,-2.5094,-2.509,-2.5085,-2.5083,-2.5081,-2.5074,-2.5065,-2.506,-2.5057,-2.5054,-2.5053,-2.506,-2.5055,-2.5029,-2.5025,-2.5021,-2.5019,-2.5061,-2.5061,-2.5082,-2.5082,-2.5083]}]]